| time (UTC) | temp F | wind direction | speed knots | gust knots | rain 1hr in | rain 24hr in | rain mn in | humidity % | barometer mb |
| 20260505023905 | 57 | 230 | 2.6 | 2.6 | 0.00 | 0.00 | 0.00 | 60 | 1011.3 |
| 20260505023402 | 57 | 213 | 2.6 | 3.5 | 0.00 | 0.00 | 0.00 | 59 | 1011.0 |
| 20260505022859 | 57 | 120 | 2.6 | 2.6 | 0.00 | 0.00 | 0.00 | 59 | 1011.1 |
| 20260505022356 | 57 | 206 | 1.7 | 2.6 | 0.00 | 0.00 | 0.00 | 59 | 1011.2 |
| 20260505021854 | 57 | 154 | 0.0 | 4.3 | 0.00 | 0.00 | 0.00 | 58 | 1011.2 |
| 20260505021350 | 57 | 180 | 0.9 | 3.5 | 0.00 | 0.00 | 0.00 | 58 | 1011.1 |
| 20260505020846 | 57 | 195 | 4.3 | 4.3 | 0.00 | 0.00 | 0.00 | 58 | 1011.2 |
| 20260505020341 | 57 | 231 | 1.7 | 2.6 | 0.00 | 0.00 | 0.00 | 58 | 1011.3 |
| 20260505015838 | 57 | 179 | 3.5 | 3.5 | 0.00 | 0.00 | 0.00 | 57 | 1011.2 |
| 20260505015336 | 57 | 238 | 0.9 | 2.6 | 0.00 | 0.00 | 0.00 | 57 | 1011.1 |
| 20260505014833 | 57 | 132 | 0.9 | 3.5 | 0.00 | 0.00 | 0.00 | 56 | 1011.1 |
| 20260505014330 | 57 | 253 | 0.9 | 4.3 | 0.00 | 0.00 | 0.00 | 55 | 1011.1 |
| 20260505013826 | 57 | 216 | 2.6 | 2.6 | 0.00 | 0.00 | 0.00 | 55 | 1011.0 |
| 20260505013324 | 58 | 191 | 1.7 | 2.6 | 0.00 | 0.00 | 0.00 | 54 | 1011.1 |
| 20260505012822 | 58 | 206 | 1.7 | 5.2 | 0.00 | 0.00 | 0.00 | 54 | 1011.1 |
| 20260505012320 | 58 | 280 | 0.0 | 2.6 | 0.00 | 0.00 | 0.00 | 52 | 1010.8 |
| 20260505011815 | 58 | 150 | 4.3 | 4.3 | 0.00 | 0.00 | 0.00 | 52 | 1010.7 |
| 20260505011312 | 59 | 205 | 1.7 | 4.3 | 0.00 | 0.00 | 0.00 | 51 | 1010.6 |
| 20260505010808 | 58 | 231 | 2.6 | 3.5 | 0.00 | 0.00 | 0.00 | 51 | 1010.7 |
| 20260505010304 | 59 | 192 | 2.6 | 5.2 | 0.00 | 0.00 | 0.00 | 50 | 1010.6 |
| 20260505005801 | 59 | 329 | 0.9 | 2.6 | 0.00 | 0.00 | 0.00 | 49 | 1010.5 |
| 20260505005258 | 59 | 226 | 2.6 | 6.1 | 0.00 | 0.00 | 0.00 | 49 | 1010.3 |
| 20260505004755 | 59 | 283 | 0.0 | 3.5 | 0.00 | 0.00 | 0.00 | 49 | 1010.2 |
| 20260505004251 | 59 | 15 | 0.0 | 2.6 | 0.00 | 0.00 | 0.00 | 48 | 1010.2 |
| 20260505003749 | 60 | 212 | 2.6 | 3.5 | 0.00 | 0.00 | 0.00 | 48 | 1010.2 |
| 20260505003246 | 60 | 190 | 3.5 | 4.3 | 0.00 | 0.00 | 0.00 | 48 | 1009.9 |
| 20260505002742 | 60 | 197 | 1.7 | 6.1 | 0.00 | 0.00 | 0.00 | 47 | 1009.8 |
| 20260505002240 | 60 | 256 | 6.1 | 9.6 | 0.00 | 0.00 | 0.00 | 47 | 1009.5 |
| 20260505001737 | 60 | 204 | 2.6 | 5.2 | 0.00 | 0.00 | 0.00 | 46 | 1009.6 |
| 20260505001235 | 60 | 66 | 0.0 | 4.3 | 0.00 | 0.00 | 0.00 | 46 | 1009.3 |
| 20260505000731 | 61 | 198 | 1.7 | 2.6 | 0.00 | 0.00 | 0.00 | 45 | 1009.3 |
| 20260505000229 | 61 | 249 | 1.7 | 4.3 | 0.00 | 0.00 | 0.00 | 45 | 1009.4 |
| 20260504235725 | 61 | 254 | 4.3 | 5.2 | 0.00 | 0.00 | 0.00 | 45 | 1009.2 |
| 20260504235221 | 61 | 192 | 2.6 | 4.3 | 0.00 | 0.00 | 0.00 | 45 | 1009.3 |
| 20260504234719 | 62 | 250 | 2.6 | 9.6 | 0.00 | 0.00 | 0.00 | 44 | 1009.1 |
| 20260504234216 | 62 | 183 | 1.7 | 4.3 | 0.00 | 0.00 | 0.00 | 43 | 1009.0 |
| 20260504233712 | 62 | 163 | 1.7 | 2.6 | 0.00 | 0.00 | 0.00 | 43 | 1008.8 |
| 20260504233208 | 63 | 225 | 4.3 | 7.0 | 0.00 | 0.00 | 0.00 | 42 | 1008.8 |
| 20260504232706 | 63 | 169 | 1.7 | 4.3 | 0.00 | 0.00 | 0.00 | 42 | 1008.8 |
| 20260504232203 | 63 | 213 | 1.7 | 7.0 | 0.00 | 0.00 | 0.00 | 42 | 1008.6 |
| 20260504231659 | 64 | 222 | 3.5 | 7.0 | 0.00 | 0.00 | 0.00 | 41 | 1008.8 |
| 20260504231155 | 64 | 280 | 2.6 | 5.2 | 0.00 | 0.00 | 0.00 | 41 | 1008.5 |
| 20260504230652 | 64 | 257 | 3.5 | 7.0 | 0.00 | 0.00 | 0.00 | 41 | 1008.6 |
| 20260504230151 | 64 | 173 | 1.7 | 5.2 | 0.00 | 0.00 | 0.00 | 41 | 1008.5 |
| 20260504225649 | 65 | 223 | 7.0 | 8.7 | 0.00 | 0.00 | 0.00 | 40 | 1008.6 |
| 20260504225144 | 65 | 231 | 3.5 | 3.5 | 0.00 | 0.00 | 0.00 | 40 | 1008.4 |
| 20260504224642 | 65 | 234 | 3.5 | 10.4 | 0.00 | 0.00 | 0.00 | 39 | 1008.2 |
| 20260504224138 | 65 | 224 | 4.3 | 4.3 | 0.00 | 0.00 | 0.00 | 40 | 1008.2 |
| 20260504223636 | 66 | 241 | 2.6 | 7.8 | 0.00 | 0.00 | 0.00 | 40 | 1008.2 |
| 20260504223131 | 66 | 286 | 4.3 | 5.2 | 0.00 | 0.00 | 0.00 | 39 | 1008.0 |
| 20260504222628 | 66 | 216 | 1.7 | 6.1 | 0.00 | 0.00 | 0.00 | 39 | 1007.8 |
| 20260504222125 | 66 | 241 | 3.5 | 7.0 | 0.00 | 0.00 | 0.00 | 38 | 1008.0 |
| 20260504221622 | 67 | 214 | 7.8 | 9.6 | 0.00 | 0.00 | 0.00 | 38 | 1008.0 |
| 20260504221120 | 67 | 282 | 3.5 | 7.8 | 0.00 | 0.00 | 0.00 | 37 | 1007.9 |
| 20260504220616 | 67 | 224 | 5.2 | 9.6 | 0.00 | 0.00 | 0.00 | 37 | 1007.9 |
| 20260504220114 | 68 | 200 | 3.5 | 7.8 | 0.00 | 0.00 | 0.00 | 36 | 1007.7 |
| 20260504215609 | 68 | 230 | 2.6 | 6.1 | 0.00 | 0.00 | 0.00 | 36 | 1008.0 |
| 20260504215107 | 68 | 255 | 6.1 | 7.8 | 0.00 | 0.00 | 0.00 | 35 | 1007.8 |
| 20260504214603 | 68 | 255 | 5.2 | 14.8 | 0.00 | 0.00 | 0.00 | 35 | 1007.9 |
| 20260504214059 | 68 | 279 | 2.6 | 6.1 | 0.00 | 0.00 | 0.00 | 35 | 1007.8 |
| 20260504213556 | 68 | 269 | 1.7 | 10.4 | 0.00 | 0.00 | 0.00 | 35 | 1007.8 |
| 20260504213053 | 68 | 263 | 5.2 | 9.6 | 0.00 | 0.00 | 0.00 | 34 | 1007.8 |
| 20260504212548 | 68 | 227 | 5.2 | 9.6 | 0.00 | 0.00 | 0.00 | 34 | 1007.8 |
| 20260504212046 | 69 | 255 | 2.6 | 7.0 | 0.00 | 0.00 | 0.00 | 34 | 1007.7 |
| 20260504211543 | 69 | 256 | 5.2 | 9.6 | 0.00 | 0.00 | 0.00 | 33 | 1007.7 |
| 20260504211040 | 69 | 197 | 5.2 | 11.3 | 0.00 | 0.00 | 0.00 | 33 | 1007.5 |
| 20260504210537 | 69 | 232 | 3.5 | 7.8 | 0.00 | 0.00 | 0.00 | 33 | 1007.5 |
| 20260504210034 | 69 | 267 | 5.2 | 11.3 | 0.00 | 0.00 | 0.00 | 31 | 1007.5 |
| 20260504205532 | 70 | 19 | 0.9 | 7.0 | 0.00 | 0.00 | 0.00 | 31 | 1007.5 |
| 20260504205029 | 71 | 197 | 5.2 | 7.8 | 0.00 | 0.00 | 0.00 | 30 | 1007.3 |
| 20260504204527 | 70 | 267 | 3.5 | 6.1 | 0.00 | 0.00 | 0.00 | 30 | 1007.4 |
| 20260504204026 | 70 | 258 | 4.3 | 7.8 | 0.00 | 0.00 | 0.00 | 29 | 1007.4 |
| 20260504203523 | 70 | 256 | 1.7 | 9.6 | 0.00 | 0.00 | 0.00 | 29 | 1007.4 |
| 20260504203021 | 71 | 260 | 1.7 | 5.2 | 0.00 | 0.00 | 0.00 | 29 | 1007.5 |
| 20260504202516 | 70 | 233 | 2.6 | 7.8 | 0.00 | 0.00 | 0.00 | 29 | 1007.3 |
| 20260504202013 | 71 | 262 | 5.2 | 6.1 | 0.00 | 0.00 | 0.00 | 29 | 1007.3 |
| 20260504201510 | 70 | 252 | 5.2 | 8.7 | 0.00 | 0.00 | 0.00 | 29 | 1007.3 |
| 20260504201008 | 69 | 22 | 0.9 | 5.2 | 0.00 | 0.00 | 0.00 | 29 | 1007.4 |
| 20260504200504 | 70 | 222 | 8.7 | 10.4 | 0.00 | 0.00 | 0.00 | 29 | 1007.7 |
| 20260504200001 | 70 | 273 | 5.2 | 9.6 | 0.00 | 0.00 | 0.00 | 28 | 1007.4 |
| 20260504195457 | 71 | 294 | 10.4 | 11.3 | 0.00 | 0.00 | 0.00 | 28 | 1007.8 |
| 20260504194954 | 70 | 228 | 3.5 | 7.8 | 0.00 | 0.00 | 0.00 | 28 | 1007.4 |
| 20260504194450 | 70 | 267 | 6.1 | 9.6 | 0.00 | 0.00 | 0.00 | 28 | 1007.5 |
| 20260504193945 | 70 | 163 | 3.5 | 6.1 | 0.00 | 0.00 | 0.00 | 28 | 1007.7 |
| 20260504193443 | 70 | 164 | 4.3 | 6.1 | 0.00 | 0.00 | 0.00 | 28 | 1007.5 |
| 20260504192942 | 70 | 228 | 3.5 | 9.6 | 0.00 | 0.00 | 0.00 | 27 | 1007.7 |
| 20260504192438 | 70 | 180 | 3.5 | 11.3 | 0.00 | 0.00 | 0.00 | 28 | 1007.7 |
| 20260504191937 | 70 | 247 | 6.1 | 10.4 | 0.00 | 0.00 | 0.00 | 28 | 1007.4 |
| 20260504191435 | 70 | 252 | 4.3 | 7.8 | 0.00 | 0.00 | 0.00 | 28 | 1007.4 |
| 20260504190930 | 70 | 206 | 3.5 | 9.6 | 0.00 | 0.00 | 0.00 | 28 | 1007.5 |
| 20260504190426 | 70 | 188 | 5.2 | 9.6 | 0.00 | 0.00 | 0.00 | 28 | 1007.5 |
| 20260504185923 | 70 | 253 | 7.8 | 14.8 | 0.00 | 0.00 | 0.00 | 27 | 1007.8 |
| 20260504185420 | 70 | 288 | 2.6 | 10.4 | 0.00 | 0.00 | 0.00 | 27 | 1007.9 |
| 20260504184916 | 71 | 184 | 5.2 | 10.4 | 0.00 | 0.00 | 0.00 | 26 | 1007.8 |
| 20260504184412 | 70 | 286 | 7.0 | 10.4 | 0.00 | 0.00 | 0.00 | 27 | 1008.0 |
| 20260504183908 | 70 | 263 | 7.0 | 14.8 | 0.00 | 0.00 | 0.00 | 28 | 1007.9 |
| 20260504183405 | 70 | 274 | 2.6 | 14.8 | 0.00 | 0.00 | 0.00 | 28 | 1008.0 |
| 20260504182903 | 70 | 289 | 3.5 | 7.8 | 0.00 | 0.00 | 0.00 | 27 | 1008.0 |
| 20260504182400 | 70 | 241 | 7.0 | 9.6 | 0.00 | 0.00 | 0.00 | 27 | 1007.9 |
| 20260504181856 | 70 | 234 | 1.7 | 8.7 | 0.00 | 0.00 | 0.00 | 27 | 1008.2 |
| 20260504181354 | 70 | 249 | 4.3 | 7.8 | 0.00 | 0.00 | 0.00 | 26 | 1008.1 |
| 20260504180853 | 69 | 269 | 5.2 | 11.3 | 0.00 | 0.00 | 0.00 | 27 | 1008.5 |
| 20260504180351 | 69 | 265 | 2.6 | 8.7 | 0.00 | 0.00 | 0.00 | 26 | 1008.1 |
| 20260504175849 | 70 | 275 | 7.0 | 13.0 | 0.00 | 0.00 | 0.00 | 26 | 1008.5 |
| 20260504175345 | 69 | 246 | 5.2 | 7.8 | 0.00 | 0.00 | 0.00 | 26 | 1008.1 |
| 20260504174844 | 69 | 236 | 7.8 | 12.2 | 0.00 | 0.00 | 0.00 | 27 | 1008.6 |
| 20260504174341 | 69 | 247 | 9.6 | 14.8 | 0.00 | 0.00 | 0.00 | 27 | 1008.5 |
| 20260504173837 | 69 | 280 | 7.0 | 9.6 | 0.00 | 0.00 | 0.00 | 26 | 1008.6 |
| 20260504173334 | 68 | 278 | 10.4 | 12.2 | 0.00 | 0.00 | 0.00 | 28 | 1008.7 |
| 20260504172831 | 68 | 230 | 6.1 | 13.0 | 0.00 | 0.00 | 0.00 | 27 | 1008.5 |
| 20260504172328 | 68 | 278 | 5.2 | 16.5 | 0.00 | 0.00 | 0.00 | 27 | 1008.6 |
| 20260504171824 | 68 | 178 | 4.3 | 14.8 | 0.00 | 0.00 | 0.00 | 27 | 1008.4 |
| 20260504171321 | 68 | 300 | 2.6 | 7.0 | 0.00 | 0.00 | 0.00 | 28 | 1008.6 |
| 20260504170818 | 68 | 276 | 7.0 | 11.3 | 0.00 | 0.00 | 0.00 | 27 | 1008.4 |
| 20260504170315 | 69 | 271 | 5.2 | 10.4 | 0.00 | 0.00 | 0.00 | 26 | 1008.6 |
| 20260504160233 | 66 | 266 | 7.0 | 9.6 | 0.00 | 0.00 | 0.00 | 29 | 1009.5 |
| 20260504150659 | 65 | 249 | 11.3 | 12.2 | 0.00 | 0.00 | 0.00 | 30 | 1010.0 |
| 20260504150155 | 65 | 324 | 3.5 | 9.6 | 0.00 | 0.00 | 0.00 | 31 | 1009.9 |
| 20260504141124 | 62 | 253 | 5.2 | 11.3 | 0.00 | 0.00 | 0.00 | 34 | 1010.4 |
| 20260504140621 | 62 | 235 | 7.0 | 11.3 | 0.00 | 0.00 | 0.00 | 35 | 1010.7 |
| 20260504140117 | 63 | 248 | 7.8 | 8.7 | 0.00 | 0.00 | 0.00 | 34 | 1010.6 |
| 20260504130545 | 59 | 255 | 3.5 | 7.8 | 0.00 | 0.00 | 0.00 | 39 | 1011.0 |
| 20260504110433 | 46 | 233 | 1.7 | 1.7 | 0.00 | 0.00 | 0.00 | 63 | 1011.6 |
| 20260504100355 | 37 | 114 | 0.9 | 1.7 | 0.00 | 0.00 | 0.00 | 82 | 1011.4 |
| 20260504081748 | 39 | 81 | 0.9 | 1.7 | 0.00 | 0.00 | 0.00 | 78 | 1011.2 |
| 20260504081245 | 39 | 105 | 0.9 | 0.9 | 0.00 | 0.00 | 0.00 | 78 | 1011.1 |
| 20260504080741 | 40 | 103 | 0.0 | 1.7 | 0.00 | 0.00 | 0.00 | 78 | 1011.0 |
| 20260504080237 | 40 | 93 | 0.9 | 1.7 | 0.00 | 0.00 | 0.00 | 78 | 1011.1 |
| 20260504070205 | 39 | 69 | 0.9 | 0.9 | 0.00 | 0.00 | 0.00 | 78 | 1010.9 |
| 20260504060126 | 36 | 102 | 0.0 | 0.9 | 0.00 | 0.00 | 0.00 | 79 | 1010.8 |
| 20260504050554 | 36 | 121 | 0.0 | 0.9 | 0.00 | 0.00 | 0.00 | 80 | 1011.0 |
| 20260504045548 | 35 | 112 | 0.9 | 0.9 | 0.00 | 0.00 | 0.00 | 83 | 1011.0 |
| 20260504045043 | 35 | 150 | 0.0 | 0.9 | 0.00 | 0.00 | 0.00 | 84 | 1011.1 |
| 20260504044541 | 35 | 86 | 1.7 | 1.7 | 0.00 | 0.00 | 0.00 | 84 | 1011.2 |
| 20260504044037 | 35 | 113 | 0.0 | 0.9 | 0.00 | 0.00 | 0.00 | 84 | 1011.2 |
| 20260504043534 | 35 | 107 | 0.0 | 0.9 | 0.00 | 0.00 | 0.00 | 85 | 1011.0 |
| 20260504043032 | 35 | 121 | 0.0 | 0.9 | 0.00 | 0.00 | 0.00 | 85 | 1011.1 |
| 20260504042529 | 35 | 135 | 0.0 | 0.9 | 0.00 | 0.00 | 0.00 | 86 | 1011.1 |
| 20260504042026 | 35 | 94 | 0.0 | 0.9 | 0.00 | 0.00 | 0.00 | 85 | 1010.9 |
| 20260504041522 | 35 | 93 | 0.0 | 1.7 | 0.00 | 0.00 | 0.00 | 85 | 1010.9 |
| 20260504041018 | 35 | 124 | 0.0 | 0.9 | 0.00 | 0.00 | 0.00 | 86 | 1010.8 |
| 20260504040516 | 35 | 80 | 0.0 | 0.9 | 0.00 | 0.00 | 0.00 | 85 | 1010.8 |
| 20260504040012 | 35 | 72 | 0.9 | 1.7 | 0.00 | 0.00 | 0.00 | 85 | 1010.8 |
| 20260504035509 | 35 | 135 | 0.0 | 0.9 | 0.00 | 0.00 | 0.00 | 85 | 1010.8 |
| 20260504035005 | 35 | 125 | 0.0 | 0.9 | 0.00 | 0.00 | 0.00 | 85 | 1010.6 |
| 20260504034503 | 35 | 66 | 0.0 | 0.0 | 0.00 | 0.00 | 0.00 | 85 | 1010.7 |
| 20260504034000 | 35 | 89 | 0.0 | 0.9 | 0.00 | 0.00 | 0.00 | 85 | 1010.6 |
| 20260504033457 | 35 | 150 | 0.9 | 0.9 | 0.00 | 0.00 | 0.00 | 85 | 1010.6 |
| 20260504032955 | 35 | 113 | 0.0 | 0.9 | 0.00 | 0.00 | 0.00 | 85 | 1010.6 |
| 20260504032451 | 34 | 104 | 0.0 | 0.0 | 0.00 | 0.00 | 0.00 | 85 | 1010.7 |
| 20260504031948 | 34 | 80 | 0.0 | 0.9 | 0.00 | 0.00 | 0.00 | 84 | 1010.5 |
| 20260504031445 | 34 | 55 | 0.0 | 1.7 | 0.00 | 0.00 | 0.00 | 83 | 1010.6 |
| 20260504030942 | 35 | 56 | 0.9 | 0.9 | 0.00 | 0.00 | 0.00 | 83 | 1010.6 |
| 20260504030439 | 35 | 68 | 0.0 | 0.9 | 0.00 | 0.00 | 0.00 | 83 | 1010.4 |
| 20260504025935 | 35 | 128 | 0.0 | 0.0 | 0.00 | 0.00 | 0.00 | 82 | 1010.4 |
| 20260504025432 | 35 | 72 | 0.0 | 0.0 | 0.00 | 0.00 | 0.00 | 81 | 1010.4 |
| 20260504024929 | 35 | 22 | 0.0 | 0.9 | 0.00 | 0.00 | 0.00 | 80 | 1010.5 |
| 20260504024426 | 35 | 66 | 0.9 | 1.7 | 0.00 | 0.00 | 0.00 | 80 | 1010.3 |